* Astronomy
Members Login
Username
Password
Login
Remember Me
New Member
Lost Account Info?
Main Page
Search
Search
Advanced Search
Links
Blob on twitter
Chat
Chat Room
Search
Newspaper
Wiki
Help
FAQ
More?
AstroForum
NASA TV
Streaming video by Ustream
NASA TV Audio
NASA Media Channel
ISS Live webcam stream
User Details
Star Map
Calendar
Arcade
Recent Posts
Home
->
Astronomy News
->
Events
->
Mikron Re-entry
Start A New Topic
Reply
Post Info
TOPIC: Mikron Re-entry
Blobrana
L
Posts: 131433
Date:
Sep 27 02:41 2005
RE: Mikron Re-entry
Permalink
Printer Friendly
Updated:
30 SEP 2005 @ 20:55 UTC ± 28 hours
__________________
Blobrana
L
Posts: 131433
Date:
Sep 23 16:14 2005
Permalink
Printer Friendly
The Mikron Microsatellite launched on 24 December 2004 from the Plesetsk Cosmodrome is predicted to re-enter the Earths atmosphere on
September 29th @ 21:16 UTC ± 2 days
.
TLE Data:
MK-1TS
1 28507U 04052C 05266.21538193 .00959944 -12276-5 87927-3 0 5002
2 28507 082.5352 003.6652 0043291 087.4849 273.1393 16.10259025 42476
1 28507U 04052C 05265.84243924 .00905074 -12273-5 86349-3 0 4991
2 28507 082.5348 004.0875 0044550 088.9770 271.6685 16.09548637 42410
1 28507U 04052C 05265.40713022 .00859882 -12270-5 85816-3 0 4983
2 28507 082.5348 004.5796 0045667 091.2667 269.3828 16.08783187 42344
1 28507U 04052C 05265.22050651 .00866822 -12271-5 87889-3 0 4979
2 28507 082.5353 004.7905 0046326 091.9303 268.7277 16.08486046 42313
1 28507U 04052C 05264.90939114 +.00852502 -12266-5 +89123-3 0 04981
2 28507 082.5346 005.1413 0047045 093.2057 267.4607 16.07963785042260
__________________
Page 1 of 1
sorted by
Oldest First
Newest First
Quick Reply
Please log in to post quick replies.
Home
->
Astronomy News
->
Events
->
Mikron Re-entry
Subscribe
Jump To:
--- News ---
Stars/galaxy News
Physics News
Comets
Earthquakes
Meetings
Galaxies
Weather
Stars
Missile
Satellite Re-entry
Neptune
Deimos
Venus
Saturn
Asteroids 2012
Meteors 2012
Meteorites 2012
Plutinos
Meteorites 2014
Comets 2014
Solar 2014
May
Historical Calendar
Comets 2015
October
Comets 2016
Asteroids 2018
Solar 2018
Meteors 2018
UFOs 2018
Astronomy News
Meteorite News
Mission News
Cosmology News
Events
Solar System
Earth
Exoplanets
Satellites
Supernovae
Space missions
Volcano
Uranus
Mercury
Pluto
UFOs 2012
Phobos
Meteors 2013
UFOs 2013
Comets 2013
Meteors 2014
Asteroids 2014
UFO 2014
Meteors 2015
November
December
UFOs 2015
April
July
August
Meteorites 2016
UFOs 2016
Asteroids 2016
General news
Asteroids 2017
Meteorites 2017
Comets 2017
Meteors 2017
UFOs 2017
UFOs
Asteroids
Solar
Observatories
Gamma-ray burst
Exhibition
Chemistry
Meteors
Mars
Jupiter
The Moon
Meteorites
Asteroids 2013
Meteorites 2013
Solar 2013
Sun
Solar 2015
Asteroids 2015
September
January
February
Meteorites 2015
March
June
Meteors 2016
Solar 2016
Solar 2017
Comets 2018
Meteorites 2018
--- Dropzone ---
Computers
Software
Cameras
Telescopes
Moon 2018
Observations
Moon 2017
Binoculars
Eyepiece
Moon 2016
App:roved
--- Media ---
Videos
Music
Audio Visual
YouTube
Art gallery
KMZ
Escape pod
Books
--- Coffee house ---
The Bazaar
Off Topic
All queries go here
Trash
Links
People
--- Agora ---
Blog
Forum help
Banned
Feedback
Test
Create your own FREE Forum
Report Abuse